1528484400.73,60056,21.63,74246.3,5.23,-14.97,-16.13,0,*72
1528484401.98,60057,21.63,74246.5,5.23,-14.83,-16.13,0,*76
1528484403.22,60058,21.63,74240.5,5.23,-14.93,-16.23,0,*7B
1528484404.47,60059,21.63,74246.5,5.23,-14.83,-16.13,0,*78
1528484405.72,60060,21.63,74242.8,5.23,-14.83,-16.13,0,*72
1528484406.99,60061,21.63,74246.8,5.21,-14.79,-16.13,0,*74
1528484408.24,60062,21.63,74246.0,5.23,-14.83,-16.23,0,*73
1528484409.49,60063,21.63,74244.8,5.23,-14.79,-16.09,0,*7F
1528484410.74,60064,21.63,74248.0,5.23,-14.83,-16.23,0,*75
1528484412.01,60065,21.63,74246.3,5.21,-14.79,-16.13,0,*70
1528484413.26,60066,21.63,74244.0,5.23,-14.83,-16.13,0,*74
1528484414.51,60067,21.63,74244.5,5.23,-14.79,-16.13,0,*70
1528484415.78,60068,21.63,74248.0,5.21,-14.93,-16.09,0,*72
1528484417.04,60069,21.63,74246.0,5.21,-14.93,-16.23,0,*7B
1528484418.32,60070,21.63,74244.3,5.21,-14.83,-16.23,0,*72
1528484419.57,60071,21.63,74248.3,5.23,-14.83,-16.13,0,*72
1528484420.81,60072,21.63,74246.5,5.23,-14.97,-16.27,0,*73
1528484422.05,60073,21.63,74244.0,5.21,-15.11,-16.27,0,*7F
1528484423.31,60074,21.63,74244.8,5.21,-14.97,-16.23,0,*73
1528484424.52,60075,21.63,74244.5,5.21,-15.07,-16.37,0,*7F
1528484425.78,60076,21.63,74244.3,5.21,-14.97,-16.27,0,*75
1528484427.05,60077,21.63,74244.5,5.21,-14.93,-16.13,0,*77
1528484428.32,60078,21.63,74244.0,5.21,-14.83,-16.13,0,*79
1528484429.57,60079,21.63,74244.0,5.21,-15.07,-16.23,0,*76
1528484430.81,60080,21.63,74244.8,5.21,-15.07,-16.27,0,*74
1528484432.05,60081,21.63,74244.8,5.21,-15.07,-16.27,0,*75
1528484433.29,60082,21.63,74250.3,5.19,-15.01,-16.27,0,*7B
1528484434.53,60083,21.63,74248.3,5.19,-15.01,-16.27,0,*7A
1528484435.75,60084,21.63,74246.0,5.19,-14.89,-16.13,0,*7B
1528484437.02,60085,21.63,74244.5,5.21,-14.93,-16.13,0,*7A
1528484438.27,60086,21.63,74248.5,5.19,-14.97,-16.17,0,*72
1528484439.54,60087,21.63,74248.8,5.21,-14.93,-16.09,0,*73
1528484440.81,60088,21.63,74246.0,5.21,-14.79,-16.09,0,*78
1528484442.08,60089,21.63,74250.5,5.21,-14.83,-16.13,0,*77
1528484443.35,60090,21.63,74244.5,5.21,-14.93,-16.13,0,*7E
1528484444.61,60091,21.63,74250.5,5.21,-14.93,-16.23,0,*7C
1528484445.88,60092,21.63,74246.0,5.21,-14.93,-16.23,0,*7F
1528484447.14,60093,21.63,74246.3,5.21,-14.97,-16.23,0,*7A
1528484448.4,60094,21.63,74246.8,5.21,-14.93,-16.23,0,*79
1528484449.64,60095,21.63,74246.0,5.21,-15.07,-16.13,0,*77
1528484450.91,60096,21.63,74250.0,5.21,-14.93,-16.13,0,*78
1528484452.18,60097,21.63,74248.8,5.21,-14.93,-16.13,0,*79
1528484453.44,60098,21.63,74246.3,5.21,-14.97,-16.13,0,*72
1528484454.7,60099,21.63,74248.5,5.21,-14.97,-16.13,0,*73
1528484455.97,60100,21.63,74244.0,5.21,-14.97,-16.13,0,*72
1528484457.23,60101,21.63,74248.8,5.21,-14.93,-16.13,0,*77
1528484458.5,60102,21.63,74244.0,5.21,-14.97,-16.13,0,*70
1528484459.74,60103,21.63,74250.3,5.21,-15.07,-16.23,0,*7A
1528484460.98,60104,21.63,74248.5,5.19,-15.01,-16.17,0,*77
1528484462.23,60105,21.63,74246.3,5.19,-15.01,-16.17,0,*76
1528484463.47,60106,21.63,74244.5,5.21,-15.07,-16.27,0,*7B
1528484464.71,60107,21.63,74248.5,5.21,-15.07,-16.23,0,*7E
1528484465.95,60108,21.63,74246.3,5.21,-15.07,-16.23,0,*71
1528484467.21,60109,21.63,74244.3,5.21,-14.97,-16.13,0,*7B
1528484468.46,60110,21.63,74246.8,5.21,-15.07,-16.23,0,*78
1528484469.7,60111,21.63,74248.0,5.21,-15.07,-16.13,0,*7A
1528484470.96,60112,21.63,74246.8,5.21,-14.97,-16.23,0,*72
1528484472.22,60113,21.63,74244.8,5.21,-14.97,-16.13,0,*70
1528484473.49,60114,21.63,74246.3,5.21,-14.97,-16.09,0,*7C
1528484474.73,60115,21.63,74246.0,5.21,-15.07,-16.23,0,*7D
1528484475.97,60116,21.63,74246.0,5.21,-15.11,-16.27,0,*7D
1528484477.22,60117,21.63,74244.0,5.19,-15.01,-16.17,0,*75
1528484478.44,60118,21.63,74246.3,5.19,-15.15,-16.13,0,*7B
1528484479.68,60119,21.63,74250.5,5.21,-15.11,-16.23,0,*76
1528484480.92,60120,21.63,74244.8,5.21,-15.07,-16.13,0,*78
1528484482.16,60121,21.63,74246.0,5.19,-15.01,-16.27,0,*73
1528484483.38,60122,21.63,74248.3,5.19,-15.11,-16.27,0,*71
1528484484.6,60123,21.63,74244.5,5.21,-15.25,-16.37,0,*7D
1528484485.84,60124,21.63,74244.5,5.19,-15.21,-16.27,0,*74
1528484487.08,60125,21.63,74250.3,5.21,-15.07,-16.23,0,*7E
1528484488.32,60126,21.63,74248.5,5.21,-15.11,-16.13,0,*79
1528484489.56,60127,21.63,74248.5,5.21,-15.11,-16.27,0,*7F
1528484490.81,60128,21.63,74250.5,5.21,-15.07,-16.13,0,*70
1528484492.03,60129,21.63,74244.0,5.19,-15.11,-16.17,0,*79
1528484493.25,60130,21.63,74244.8,5.19,-15.15,-16.27,0,*76
1528484494.49,60131,21.63,74248.0,5.21,-15.21,-16.37,0,*7A
1528484495.69,60132,21.63,74244.5,5.19,-15.25,-16.41,0,*77
1528484496.95,60133,21.63,74244.5,5.21,-15.21,-16.27,0,*79
1528484498.15,60134,21.63,74244.5,5.19,-15.29,-16.41,0,*7D
1528484499.4,60135,21.63,74246.3,5.21,-15.25,-16.13,0,*7C
1528484500.6,60136,21.63,74248.0,5.19,-15.29,-16.41,0,*7F
1528484501.83,60137,21.63,74248.3,5.19,-15.25,-16.31,0,*75
1528484503.05,60138,21.63,74246.3,5.19,-15.29,-16.31,0,*76
1528484504.27,60139,21.63,74244.0,5.21,-15.25,-16.37,0,*76
1528484505.5,60140,21.63,74244.5,5.19,-15.25,-16.31,0,*75
1528484506.72,60141,21.63,74248.0,5.19,-15.25,-16.31,0,*74
1528484507.98,60142,21.63,74246.3,5.21,-15.21,-16.23,0,*7B
1528484509.22,60143,21.63,74248.0,5.21,-15.11,-16.27,0,*7D
1528484510.42,60144,21.63,74250.0,5.19,-15.25,-16.41,0,*76
1528484511.65,60145,21.63,74244.8,5.19,-15.25,-16.31,0,*70
1528484512.89,60146,21.63,74246.8,5.21,-15.25,-16.27,0,*7F
1528484514.09,60147,21.63,74250.3,5.19,-15.29,-16.45,0,*7D
1528484515.31,60148,21.63,74246.5,5.19,-15.43,-16.41,0,*7A
1528484516.54,60149,21.63,74248.3,5.19,-15.25,-16.31,0,*7C
1528484517.76,60150,21.63,74250.0,5.19,-15.29,-16.31,0,*78
1528484518.99,60151,21.63,74248.3,5.19,-15.25,-16.27,0,*72
1528484520.21,60152,21.63,74248.8,5.19,-15.25,-16.31,0,*76
1528484521.43,60153,21.63,74248.0,5.19,-15.39,-16.45,0,*79
1528484522.68,60154,21.63,74246.3,5.17,-15.29,-16.31,0,*72
1528484523.95,60155,21.63,74244.8,5.17,-15.39,-16.31,0,*72
1528484525.22,60156,21.63,74246.8,5.17,-15.39,-16.51,0,*77
1528484526.44,60157,21.63,74246.3,5.17,-15.29,-16.45,0,*72
1528484527.69,60158,21.63,74248.0,5.17,-15.25,-16.31,0,*72
1528484528.94,60159,21.63,74246.5,5.17,-15.15,-16.27,0,*77
1528484530.16,60160,21.63,74250.8,5.19,-15.25,-16.31,0,*77
1528484531.36,60161,21.63,74248.5,5.19,-15.29,-16.41,0,*7D
1528484532.57,60162,21.63,74250.3,5.19,-15.29,-16.41,0,*7E
1528484533.79,60163,21.63,74248.5,5.19,-15.39,-16.41,0,*7E
1528484535.02,60164,21.63,74248.5,5.19,-15.29,-16.31,0,*7F
1528484536.26,60165,21.63,74248.0,5.17,-15.25,-16.27,0,*7B
1528484537.48,60166,21.63,74250.3,5.15,-15.39,-16.45,0,*73
1528484538.7,60167,21.63,74248.8,5.15,-15.35,-16.37,0,*7B
1528484539.95,60168,21.63,74248.5,5.17,-15.29,-16.31,0,*7D
1528484541.2,60169,21.63,74244.3,5.17,-15.39,-16.41,0,*7A
1528484542.44,60170,21.63,74248.0,5.17,-15.39,-16.45,0,*76
1528484543.69,60171,21.63,74244.3,5.17,-15.43,-16.45,0,*7A
1528484544.91,60172,21.63,74250.3,5.15,-15.43,-16.45,0,*7B
1528484546.13,60173,21.63,74248.5,5.15,-15.35,-16.37,0,*7E
1528484547.35,60174,21.63,74252.3,5.15,-15.35,-16.37,0,*79
1528484548.57,60175,21.63,74248.8,5.19,-15.39,-16.45,0,*7D
1528484549.82,60176,21.63,74248.8,5.17,-15.29,-16.31,0,*72
1528484551.01,60177,21.63,74250.8,5.15,-15.49,-16.37,0,*71
1528484552.28,60178,21.63,74246.3,5.17,-15.43,-16.31,0,*70
1528484553.53,60179,21.63,74248.8,5.17,-15.29,-16.27,0,*7A
1528484554.78,60180,21.63,74250.3,5.17,-15.15,-16.27,0,*73
1528484556.03,60181,21.63,74246.3,5.17,-15.43,-16.41,0,*71
1528484557.27,60182,21.63,74250.5,5.17,-15.39,-16.45,0,*7B
1528484558.5,60183,21.63,74248.5,5.15,-15.43,-16.41,0,*71
1528484559.75,60184,21.63,74248.3,5.17,-15.39,-16.41,0,*79
1528484561.0,60185,21.63,74248.0,5.17,-15.29,-16.27,0,*79
1528484562.24,60186,21.63,74248.5,5.17,-15.39,-16.41,0,*7B
1528484563.52,60187,21.63,74244.5,5.17,-15.39,-16.31,0,*7D
1528484564.73,60188,21.63,74250.3,5.17,-15.53,-16.45,0,*7D
1528484565.95,60189,21.63,74248.5,5.17,-15.53,-16.45,0,*7C
1528484567.2,60190,21.63,74250.3,5.15,-15.43,-16.51,0,*72
1528484568.45,60191,21.63,74248.8,5.15,-15.43,-16.51,0,*73
1528484569.67,60192,21.63,74248.3,5.15,-15.43,-16.45,0,*75
1528484570.91,60193,21.63,74250.3,5.17,-15.43,-16.45,0,*76
1528484572.13,60194,21.63,74250.0,5.15,-15.49,-16.51,0,*7C
1528484573.35,60195,21.63,74246.3,5.15,-15.43,-16.37,0,*77
1528484574.62,60196,21.63,74250.0,5.17,-15.39,-16.31,0,*7D
1528484575.87,60197,21.63,74250.5,5.17,-15.53,-16.51,0,*76
1528484577.09,60198,21.63,74250.8,5.17,-15.53,-16.45,0,*7C
1528484578.33,60199,21.63,74250.5,5.19,-15.43,-16.31,0,*71
1528484579.56,60200,21.63,74248.5,5.15,-15.49,-16.51,0,*72
1528484580.78,60201,21.63,74248.5,5.15,-15.57,-16.55,0,*78
1528484582.0,60202,21.63,74252.0,5.15,-15.57,-16.55,0,*7B
1528484583.25,60203,21.63,74248.0,5.15,-15.57,-16.51,0,*7E
1528484584.49,60204,21.63,74250.0,5.15,-15.57,-16.51,0,*79
1528484585.76,60205,21.63,74248.0,5.17,-15.43,-16.51,0,*7F
1528484587.0,60206,21.63,74250.3,5.17,-15.43,-16.45,0,*79
1528484588.22,60207,21.63,74248.8,5.15,-15.43,-16.45,0,*7A
1528484589.49,60208,21.63,74248.0,5.17,-15.43,-16.51,0,*72
1528484590.72,60209,21.63,74248.0,5.15,-15.57,-16.55,0,*70
1528484591.93,60210,21.63,74248.5,5.17,-15.53,-16.45,0,*7F
1528484593.13,60211,21.63,74250.3,5.15,-15.49,-16.45,0,*77
1528484594.37,60212,21.63,74250.0,5.17,-15.43,-16.45,0,*7C
1528484595.62,60213,21.63,74250.3,5.17,-15.43,-16.41,0,*79
1528484596.89,60214,21.63,74248.8,5.17,-15.57,-16.51,0,*7A
1528484598.09,60215,21.63,74248.8,5.15,-15.63,-16.55,0,*7A
1528484599.31,60216,21.63,74248.8,5.17,-15.53,-16.45,0,*79
1528484600.51,60217,21.63,74250.5,5.15,-15.53,-16.41,0,*7E
1528484601.73,60218,21.63,74250.3,5.15,-15.43,-16.37,0,*71
1528484602.92,60219,21.63,74248.5,5.15,-15.49,-16.45,0,*7F
1528484604.14,60220,21.63,74250.0,5.15,-15.49,-16.51,0,*70
1528484605.36,60221,21.63,74248.8,5.17,-15.53,-16.45,0,*7D
1528484606.61,60222,21.63,74248.0,5.17,-15.53,-16.51,0,*7B
1528484607.8,60223,21.63,74248.8,5.15,-15.49,-16.45,0,*76
1528484609.02,60224,21.63,74248.5,5.15,-15.57,-16.45,0,*7E
1528484610.26,60225,21.63,74248.5,5.17,-15.53,-16.51,0,*7C
1528484611.49,60226,21.63,74248.5,5.15,-15.57,-16.55,0,*7D
1528484612.75,60227,21.63,74250.5,5.17,-15.57,-16.51,0,*7A
1528484614.02,60228,21.63,74248.3,5.17,-15.57,-16.51,0,*75
1528484615.24,60229,21.63,74248.5,5.15,-15.63,-16.65,0,*76
1528484616.47,60230,21.63,74248.3,5.15,-15.75,-16.65,0,*79
1528484617.67,60231,21.63,74250.5,5.15,-15.67,-16.55,0,*78
1528484618.87,60232,21.63,74254.0,5.15,-15.53,-16.45,0,*7D
1528484620.09,60233,21.63,74250.8,5.15,-15.57,-16.55,0,*79
1528484621.33,60234,21.63,74250.3,5.13,-15.57,-16.45,0,*79
1528484622.53,60235,21.63,74250.3,5.15,-15.49,-16.55,0,*70
1528484623.75,60236,21.63,74248.8,5.15,-15.63,-16.51,0,*7F
1528484625.01,60237,21.63,74250.5,5.13,-15.57,-16.51,0,*7F
1528484626.23,60238,21.63,74248.3,5.17,-15.53,-16.45,0,*75
1528484627.48,60239,21.63,74248.8,5.15,-15.57,-16.51,0,*77
1528484628.68,60240,21.63,74250.5,5.15,-15.63,-16.55,0,*7A
1528484629.88,60241,21.63,74248.0,5.15,-15.67,-16.55,0,*7F
1528484631.1,60242,21.63,74248.8,5.15,-15.67,-16.51,0,*78
1528484632.36,60243,21.63,74252.3,5.13,-15.57,-16.51,0,*7C
1528484633.58,60244,21.63,74250.0,5.13,-15.63,-16.55,0,*78
1528484634.8,60245,21.63,74252.0,5.13,-15.67,-16.55,0,*7D
1528484636.05,60246,21.63,74250.0,5.13,-15.67,-16.65,0,*7D
1528484637.3,60247,21.63,74250.3,5.13,-15.75,-16.65,0,*7F
1528484638.52,60248,21.63,74248.5,5.13,-15.67,-16.55,0,*70
1528484639.74,60249,21.63,74250.8,5.15,-15.67,-16.51,0,*73
1528484640.95,60250,21.63,74250.0,5.13,-15.63,-16.45,0,*7C
1528484642.17,60251,21.63,74248.0,5.15,-15.63,-16.51,0,*7E
1528484643.37,60252,21.63,74252.8,5.11,-15.67,-16.55,0,*79
1528484644.57,60253,21.56,74250.3,5.11,-15.67,-16.59,0,*74
1528484645.79,60254,21.63,74252.8,5.13,-15.63,-16.55,0,*79
1528484647.04,60255,21.63,74250.5,5.13,-15.67,-16.65,0,*7F
1528484648.26,60256,21.63,74250.5,5.13,-15.67,-16.55,0,*7F
1528484649.5,60257,21.63,74254.5,5.13,-15.67,-16.65,0,*7D
1528484650.7,60258,21.63,74248.3,5.11,-15.63,-16.55,0,*77
1528484651.92,60259,21.63,74254.0,5.13,-15.63,-16.55,0,*74
1528484653.12,60260,21.63,74250.5,5.11,-15.71,-16.59,0,*73
1528484654.35,60261,21.63,74248.0,5.13,-15.67,-16.55,0,*7B
1528484655.57,60262,21.56,74250.0,5.13,-15.67,-16.55,0,*78
1528484656.81,60263,21.63,74250.8,5.13,-15.63,-16.51,0,*79
1528484658.05,60264,21.63,74252.0,5.13,-15.67,-16.51,0,*7A
1528484659.26,60265,21.63,74250.5,5.13,-15.67,-16.45,0,*7E
1528484660.48,60266,21.63,74250.8,5.13,-15.67,-16.55,0,*7C
1528484661.73,60267,21.63,74248.0,5.11,-15.81,-16.69,0,*78
1528484662.97,60268,21.63,74250.3,5.13,-15.75,-16.65,0,*72
1528484664.24,60269,21.63,74248.3,5.13,-15.81,-16.69,0,*74
1528484665.47,60270,21.63,74252.3,5.11,-15.85,-16.75,0,*77
1528484666.67,60271,21.63,74250.8,5.11,-15.71,-16.55,0,*7F
1528484667.92,60272,21.63,74248.0,5.15,-15.81,-16.65,0,*74
1528484669.14,60273,21.63,74248.8,5.13,-15.67,-16.55,0,*78
1528484670.39,60274,21.63,74248.0,5.13,-15.75,-16.69,0,*73
1528484671.61,60275,21.63,74248.8,5.11,-15.71,-16.69,0,*74
1528484672.81,60276,21.63,74252.5,5.11,-15.71,-16.55,0,*78
1528484674.0,60277,21.63,74252.0,5.15,-15.63,-16.45,0,*7F
1528484675.24,60278,21.63,74252.8,5.13,-15.67,-16.51,0,*77
1528484676.46,60279,21.63,74252.8,5.13,-15.63,-16.55,0,*76
1528484677.69,60280,21.63,74250.0,5.13,-15.75,-16.55,0,*77
1528484678.91,60281,21.56,74250.3,5.11,-15.67,-16.51,0,*73
1528484680.11,60282,21.63,74250.3,5.11,-15.67,-16.59,0,*78
1528484681.37,60283,21.63,74252.3,5.13,-15.81,-16.69,0,*70
1528484682.64,60284,21.63,74250.5,5.13,-15.81,-16.69,0,*77
1528484683.88,60285,21.63,74250.5,5.13,-15.67,-16.51,0,*75
1528484685.12,60286,21.63,74252.3,5.13,-15.67,-16.51,0,*76
1528484686.36,60287,21.63,74248.0,5.13,-15.57,-16.37,0,*74
1528484687.59,60288,21.63,74254.5,5.15,-15.67,-16.51,0,*7E
1528484688.78,60289,21.63,74250.3,5.15,-15.67,-16.45,0,*7A
1528484690.0,60290,21.63,74252.3,5.11,-15.81,-16.59,0,*73
1528484691.25,60291,21.63,74254.5,5.13,-15.75,-16.51,0,*73
1528484692.47,60292,21.63,74248.0,5.11,-15.71,-16.51,0,*76
1528484693.69,60293,21.63,74250.8,5.13,-15.75,-16.55,0,*75
1528484694.93,60294,21.63,74252.5,5.13,-15.67,-16.65,0,*72
1528484696.18,60295,21.63,74248.5,5.11,-15.85,-16.69,0,*71
1528484697.39,60296,21.56,74250.0,5.11,-15.95,-16.75,0,*7E
1528484698.63,60297,21.63,74250.8,5.11,-15.85,-16.69,0,*73
1528484699.86,60298,21.56,74250.8,5.11,-15.85,-16.59,0,*7F
1528484701.09,60299,21.63,74248.8,5.13,-15.75,-16.55,0,*7F
1528484702.36,60300,21.63,74254.3,5.13,-15.81,-16.69,0,*7A
1528484703.6,60301,21.63,74250.5,5.13,-15.81,-16.55,0,*74
1528484704.82,60302,21.63,74252.0,5.13,-15.67,-16.55,0,*7F
1528484706.02,60303,21.63,74252.0,5.11,-15.75,-16.55,0,*7F
1528484707.25,60304,21.63,74254.3,5.11,-15.85,-16.59,0,*7B
1528484708.47,60305,21.63,74254.0,5.13,-15.67,-16.55,0,*78
1528484709.74,60306,21.63,74250.8,5.13,-15.81,-16.65,0,*70
1528484711.01,60307,21.63,74252.3,5.13,-15.81,-16.65,0,*71
1528484712.23,60308,21.63,74252.8,5.11,-15.95,-16.69,0,*75
1528484713.47,60309,21.63,74254.5,5.13,-15.95,-16.65,0,*7A
1528484714.7,60310,21.63,74254.3,5.11,-15.95,-16.69,0,*7C
1528484715.93,60311,21.63,74254.8,5.11,-15.85,-16.75,0,*71
1528484717.15,60312,21.63,74252.5,5.11,-15.89,-16.59,0,*70
1528484718.38,60313,21.56,74248.0,5.11,-15.85,-16.59,0,*7D
1528484719.58,60314,21.63,74254.3,5.11,-15.95,-16.75,0,*75
1528484720.81,60315,21.63,74252.3,5.11,-15.95,-16.69,0,*79
1528484722.04,60316,21.63,74248.8,5.11,-16.09,-16.75,0,*71
1528484723.31,60317,21.63,74254.0,5.13,-15.89,-16.65,0,*78
1528484724.53,60318,21.63,74252.3,5.11,-15.95,-16.69,0,*74
1528484725.78,60319,21.63,74252.3,5.11,-15.85,-16.69,0,*74
1528484727.05,60320,21.63,74252.3,5.13,-15.89,-16.65,0,*7C
1528484728.32,60321,21.63,74248.5,5.13,-15.89,-16.65,0,*7D
1528484729.53,60322,21.63,74250.8,5.11,-15.95,-16.75,0,*70
1528484730.77,60323,21.63,74254.8,5.13,-16.03,-16.69,0,*72
1528484731.97,60324,21.63,74252.3,5.11,-15.99,-16.75,0,*7A
1528484733.24,60325,21.63,74250.5,5.13,-15.89,-16.69,0,*75
1528484734.48,60326,21.63,74254.5,5.13,-16.03,-16.65,0,*7B
1528484735.68,60327,21.63,74252.3,5.11,-15.99,-16.75,0,*79
1528484736.88,60328,21.63,74252.5,5.11,-15.95,-16.75,0,*7A
1528484738.11,60329,21.56,74250.0,5.11,-16.09,-16.83,0,*74
1528484739.36,60330,21.63,74252.8,5.13,-16.03,-16.69,0,*70
1528484740.59,60331,21.63,74250.5,5.11,-16.09,-16.75,0,*74
1528484741.8,60332,21.63,74252.8,5.11,-15.99,-16.69,0,*70
1528484743.04,60333,21.63,74250.5,5.11,-16.09,-16.75,0,*76
1528484744.28,60334,21.63,74252.5,5.13,-16.03,-16.69,0,*74
1528484745.5,60335,21.56,74250.0,5.11,-15.99,-16.69,0,*77
1528484746.7,60336,21.63,74250.3,5.11,-15.95,-16.59,0,*7B
1528484747.97,60337,21.63,74254.5,5.13,-16.09,-16.69,0,*7D
1528484749.21,60338,21.63,74250.8,5.11,-16.09,-16.75,0,*7D
1528484750.43,60339,21.63,74248.8,5.11,-16.03,-16.69,0,*7B
1528484751.66,60340,21.63,74250.5,5.11,-16.09,-16.83,0,*7B
1528484752.91,60341,21.63,74252.3,5.13,-16.09,-16.79,0,*7D
1528484754.14,60342,21.63,74254.5,5.11,-16.09,-16.83,0,*79
1528484755.37,60343,21.63,74254.5,5.11,-16.09,-16.83,0,*78
1528484756.6,60344,21.56,74250.3,5.11,-16.13,-16.83,0,*74
1528484757.83,60345,21.63,74254.8,5.11,-16.09,-16.79,0,*7B
1528484759.06,60346,21.56,74248.0,5.11,-16.09,-16.75,0,*74
1528484760.28,60347,21.63,74254.8,5.11,-15.99,-16.69,0,*72
1528484761.53,60348,21.63,74252.3,5.11,-16.09,-16.69,0,*77
1528484762.76,60349,21.56,74248.3,5.11,-16.09,-16.75,0,*7B
1528484764.0,60350,21.63,74254.8,5.11,-16.09,-16.75,0,*73
1528484765.24,60351,21.63,74254.0,5.13,-15.95,-16.65,0,*77
1528484766.47,60352,21.63,74252.5,5.11,-16.13,-16.75,0,*7A
1528484767.7,60353,21.63,74252.5,5.11,-16.23,-16.75,0,*78
1528484768.93,60354,21.63,74248.5,5.11,-16.13,-16.75,0,*7C
1528484770.15,60355,21.63,74254.5,5.11,-16.23,-16.83,0,*77
1528484771.38,60356,21.56,74248.0,5.11,-16.23,-16.83,0,*74
1528484772.6,60357,21.63,74250.0,5.11,-16.23,-16.83,0,*75
1528484773.85,60358,21.63,74254.0,5.13,-16.17,-16.79,0,*7A
1528484775.08,60359,21.63,74252.3,5.11,-16.13,-16.83,0,*78
1528484776.33,60360,21.63,74250.8,5.13,-16.09,-16.83,0,*7B
1528484777.56,60361,21.63,74252.5,5.11,-16.13,-16.83,0,*73
1528484778.81,60362,21.63,74252.3,5.13,-16.23,-16.83,0,*71
1528484780.03,60363,21.63,74254.5,5.11,-16.27,-16.83,0,*76
1528484781.26,60364,21.63,74252.8,5.11,-16.27,-16.83,0,*71
1528484782.48,60365,21.63,74252.5,5.11,-16.27,-16.83,0,*70
1528484783.72,60366,21.56,74248.5,5.13,-16.23,-16.79,0,*70
1528484784.97,60367,21.63,74252.0,5.13,-16.17,-16.79,0,*76
1528484786.17,60368,21.63,74250.8,5.11,-15.99,-16.75,0,*72
1528484787.4,60369,21.63,74252.8,5.11,-16.13,-16.75,0,*72
1528484788.68,60370,21.63,74252.5,5.13,-16.09,-16.69,0,*7E
1528484789.9,60371,21.56,74250.0,5.11,-16.23,-16.83,0,*71
1528484791.13,60372,21.63,74254.5,5.11,-16.09,-16.83,0,*7A
1528484792.38,60373,21.63,74252.0,5.13,-16.17,-16.79,0,*73
1528484793.63,60374,21.56,74250.8,5.11,-16.09,-16.69,0,*78
1528484794.88,60375,21.63,74256.0,5.13,-15.95,-16.65,0,*71
1528484796.13,60376,21.63,74252.3,5.13,-15.89,-16.55,0,*7C
1528484797.36,60377,21.56,74248.8,5.11,-16.09,-16.75,0,*76
1528484798.6,60378,21.63,74250.5,5.13,-16.31,-16.83,0,*79
1528484799.85,60379,21.63,74252.5,5.13,-16.23,-16.83,0,*7B
1528484801.1,60380,21.56,74248.3,5.13,-16.09,-16.79,0,*70
1528484802.35,60381,21.63,74252.3,5.13,-16.17,-16.83,0,*7B
1528484803.57,60382,21.63,74254.0,5.11,-16.27,-16.83,0,*79
1528484804.82,60383,21.56,74252.3,5.13,-16.31,-16.83,0,*7D
1528484806.06,60384,21.63,74252.5,5.13,-16.31,-16.83,0,*7A
1528484807.31,60385,21.56,74252.3,5.13,-16.23,-16.83,0,*78
1528484808.55,60386,21.63,74252.8,5.13,-16.31,-16.83,0,*78
1528484809.79,60387,21.63,74254.0,5.13,-16.31,-16.97,0,*7C
1528484811.01,60388,21.56,74250.3,5.11,-16.37,-17.03,0,*7B
1528484812.25,60389,21.63,74252.5,5.13,-16.31,-16.97,0,*72
1528484813.49,60390,21.63,74252.5,5.13,-16.31,-16.97,0,*7A
1528484814.74,60391,21.63,74252.5,5.13,-16.23,-16.93,0,*7C
1528484815.93,60392,21.63,74252.8,5.11,-16.37,-16.89,0,*73
1528484817.13,60393,21.63,74250.8,5.11,-16.37,-16.83,0,*78
1528484818.37,60394,21.63,74250.8,5.13,-16.31,-16.83,0,*7B
1528484819.61,60395,21.56,74252.0,5.13,-16.31,-16.93,0,*7B
1528484820.81,60396,21.63,74250.5,5.11,-16.41,-16.97,0,*79
1528484822.01,60397,21.56,74248.8,5.11,-16.37,-16.89,0,*76
1528484823.25,60398,21.63,74252.3,5.13,-16.31,-16.83,0,*77
1528484824.5,60399,21.63,74252.8,5.13,-16.31,-16.83,0,*76
1528484825.74,60400,21.63,74254.0,5.13,-16.23,-16.79,0,*77
1528484826.98,60401,21.63,74252.8,5.13,-16.31,-16.79,0,*75
1528484828.21,60402,21.63,74250.8,5.11,-16.27,-16.83,0,*76
1528484829.43,60403,21.63,74252.3,5.13,-16.37,-16.79,0,*71
1528484830.65,60404,21.63,74250.8,5.13,-16.37,-16.83,0,*73
1528484831.88,60405,21.63,74254.8,5.13,-16.37,-16.83,0,*72
1528484833.1,60406,21.63,74252.5,5.13,-16.45,-16.93,0,*75
1528484834.3,60407,21.63,74252.0,5.11,-16.41,-16.97,0,*76
1528484835.5,60408,21.56,74250.3,5.11,-16.45,-16.83,0,*78
1528484836.72,60409,21.63,74254.0,5.13,-16.37,-16.83,0,*7E
1528484837.94,60410,21.56,74250.0,5.13,-16.45,-16.93,0,*72
1528484839.14,60411,21.63,74254.0,5.15,-16.37,-16.83,0,*71
1528484840.36,60412,21.63,74254.8,5.13,-16.37,-16.93,0,*75
1528484841.57,60413,21.63,74252.3,5.13,-16.37,-16.93,0,*74
1528484842.79,60414,21.63,74252.5,5.13,-16.45,-16.93,0,*76
1528484844.01,60415,21.63,74254.8,5.13,-16.37,-16.97,0,*76
1528484845.24,60416,21.56,74248.8,5.15,-16.51,-16.97,0,*73
1528484846.44,60417,21.63,74252.0,5.15,-16.45,-16.97,0,*77
1528484847.69,60418,21.56,74254.0,5.15,-16.51,-17.07,0,*75
1528484848.97,60419,21.63,74252.3,5.13,-16.51,-17.07,0,*72
1528484850.22,60420,21.63,74254.8,5.13,-16.55,-17.11,0,*7B
1528484851.48,60421,21.56,74252.8,5.13,-16.55,-17.07,0,*7D
1528484852.73,60422,21.63,74252.3,5.15,-16.65,-17.11,0,*7C
1528484853.99,60423,21.63,74254.3,5.15,-16.65,-17.11,0,*7D
1528484855.24,60424,21.63,74254.5,5.15,-16.69,-17.07,0,*71
1528484856.51,60425,21.63,74254.5,5.15,-16.65,-17.07,0,*7C
1528484857.76,60426,21.63,74254.3,5.15,-16.69,-17.11,0,*74
1528484859.03,60427,21.56,74254.5,5.13,-16.69,-17.11,0,*73
1528484860.3,60428,21.63,74254.8,5.13,-16.69,-17.11,0,*7C
1528484861.57,60429,21.63,74252.5,5.13,-16.69,-17.21,0,*7E
1528484862.82,60430,21.56,74252.5,5.13,-16.83,-17.21,0,*72
1528484864.07,60431,21.56,74254.3,5.13,-16.83,-17.21,0,*73
1528484865.32,60432,21.63,74256.0,5.13,-16.83,-17.25,0,*74
1528484866.54,60433,21.56,74254.0,5.15,-16.83,-17.25,0,*73
1528484867.77,60434,21.63,74254.8,5.15,-16.79,-17.21,0,*75
1528484868.99,60435,21.56,74250.8,5.15,-16.79,-17.11,0,*77
1528484870.22,60436,21.63,74254.3,5.15,-16.83,-17.11,0,*71
1528484871.45,60437,21.63,74254.0,5.15,-16.83,-17.21,0,*73
1528484872.7,60438,21.63,74254.5,5.17,-16.89,-17.21,0,*74
1528484873.94,60439,21.63,74254.5,5.17,-16.93,-17.21,0,*7E
1528484875.15,60440,21.56,74250.5,5.15,-16.97,-17.35,0,*73
1528484876.37,60441,21.56,74250.8,5.15,-16.97,-17.21,0,*77
1528484877.59,60442,21.56,74252.5,5.15,-16.97,-17.25,0,*70
1528484878.82,60443,21.63,74254.5,5.15,-17.11,-17.35,0,*7F
1528484880.05,60444,21.56,74254.8,5.15,-17.11,-17.35,0,*78
1528484881.3,60445,21.56,74248.8,5.17,-16.89,-17.17,0,*7B
1528484882.52,60446,21.63,74256.5,5.15,-16.97,-17.25,0,*74
1528484883.74,60447,21.56,74254.8,5.15,-16.97,-17.21,0,*71
1528484884.95,60448,21.56,74254.0,5.15,-16.97,-17.35,0,*7B
1528484886.2,60449,21.63,74254.3,5.15,-17.07,-17.41,0,*71
1528484887.48,60450,21.63,74252.8,5.17,-17.07,-17.41,0,*7B
1528484888.7,60451,21.63,74254.0,5.15,-17.11,-17.49,0,*77
1528484889.93,60452,21.56,74254.8,5.15,-17.07,-17.35,0,*78
1528484891.19,60453,21.56,74252.0,5.17,-17.07,-17.35,0,*7B
1528484892.44,60454,21.63,74252.8,5.17,-17.21,-17.49,0,*73
1528484893.68,60455,21.56,74254.5,5.17,-17.21,-17.49,0,*72
1528484894.94,60456,21.56,74252.0,5.17,-17.17,-17.35,0,*7F
1528484896.22,60457,21.56,74254.8,5.17,-17.17,-17.45,0,*79
1528484897.47,60458,21.63,74252.5,5.15,-17.25,-17.55,0,*74
1528484898.72,60459,21.56,74254.8,5.17,-17.21,-17.49,0,*7E
1528484899.94,60460,21.63,74256.3,5.15,-17.25,-17.49,0,*72
1528484901.19,60461,21.63,74256.5,5.17,-17.21,-17.49,0,*75
1528484902.44,60462,21.63,74254.3,5.17,-17.21,-17.49,0,*76